144 
ASUS46 KSEW 200510
RWRWA 

WASHINGTON REGIONAL WEATHER ROUNDUP
NATIONAL WEATHER SERVICE SEATTLE WA
1000 PM PDT MON AUG 19 2019

NOTE:"FAIR" INDICATES FEW OR NO CLOUDS BELOW 12,000 FEET WITH NO 
SIGNIFICANT WEATHER AND/OR OBSTRUCTIONS TO VISIBILITY.

WAZ507-509-555>559-200600-
SEATTLE, TACOMA, EVERETT, AND VICINITY
  
CITY           SKY/WX    TMP DP  RH WIND       PRES   REMARKS
EVERETT        PTCLDY    61  51  70 N5        30.00S                  
BOEING FIELD   PTCLDY    67  51  56 CALM      29.97S                  
RENTON         PTCLDY    68  57  68 N7        29.96F                  
SEATAC AIRPORT PTCLDY    67  52  58 N8        29.98F                  
JBLM-MCCHORD   PTCLDY    65  58  79 CALM      29.97S                  
PUYALLUP       FAIR      61  57  88 CALM      29.98S                  
BREMERTON      PTCLDY    60  53  77 NE6       29.99S                  
JBLM-FT LEWIS  CLEAR     67  58  72 CALM      29.96S                  
TACOMA NARROWS PTCLDY    63  52  67 NE6       29.98S                  
$$
 
WAZ001-503-506-510-514-515-200600-
NORTH INTERIOR
  
CITY           SKY/WX    TMP DP  RH WIND       PRES   REMARKS
BELLINGHAM     PTCLDY    59  51  75 CALM      29.98F                  
FRIDAY HARBOR  MOCLDY    55  49  80 CALM      29.99F                  
EASTSOUND      PTCLDY    59  54  82 CALM      29.97F                  
PORT ANGELES   PTCLDY    57  51  80 SW3       30.00S                  
EDIZ HOOK      FAIR      57  51  81 S6        29.99S                  
PORT TOWNSEND  FAIR      55  50  82 CALM      29.99S                  
NAS WHIDBEY    PTCLDY    59  51  75 SW6       30.03S                  
ARLINGTON      PTCLDY    60  51  72 CALM      29.99S                  
BURLINGTON     CLEAR     57  50  77 CALM      29.99S                  
$$
 
WAZ020-022-039-040-504-511-512-200600-
SOUTHWEST INTERIOR
  
CITY           SKY/WX    TMP DP  RH WIND       PRES   REMARKS
SHELTON        PTCLDY    60  52  74 CALM      29.95S                  
OLYMPIA        PTCLDY    65  52  62 N5        29.96S                  
CHEHALIS       FAIR      63  57  82 CALM      29.96S                  
KELSO          PTCLDY    66  58  75 NE3       29.95R                  
VANCOUVER      PTCLDY    70  56  61 NW3       29.92S                  
SCAPPOOSE, OR  PTCLDY    66  56  70 W3        29.92R                  
PORTLAND, OR   PTCLDY    71  57  61 W6        29.92F                  
$$
 
WAZ021-516-517-200600-
WASHINGTON COAST
  
CITY           SKY/WX    TMP DP  RH WIND       PRES   REMARKS
FORKS          MOCLDY    58  53  84 N5        29.99R                  
HOQUIAM        PTCLDY    61  55  81 CALM      29.97S                  
ASTORIA, OR    CLEAR     59  54  83 CALM      29.95S                  
$$
 
WAZ019-023-024-040-567>569-200600-
CASCADE MOUNTAINS AND COLUMBIA GORGE
  
CITY           SKY/WX    TMP DP  RH WIND       PRES   REMARKS
STAMPEDE PASS  CLEAR     53  49  86 VRB6      30.07F                  
TROUTDALE, OR  CLEAR     70  56  61 CALM      29.92S                  
HOOD RIVER, OR CLEAR     66  52  59 CALM      29.91R                  
THE DALLES, OR CLEAR     75  53  46 NW13      29.85R                  
$$

WAZ026-027-041>044-520-521-200600-
EAST SLOPES
  
CITY           SKY/WX    TMP DP  RH WIND       PRES   REMARKS
OMAK           CLEAR     76  43  30 S6        29.87R                  
WENATCHEE      CLEAR     75  40  28 NW6       29.89R                  
ELLENSBURG     CLEAR     70  48  45 NW17      29.92S                  
YAKIMA         CLEAR     71  51  49 W6        29.89R                  
SUNNYSIDE ARPT CLEAR     66  55  67 NE5       29.85S                  
YAKIMA TC      FAIR      75  38  26 E8        29.89R                  
$$

WAZ028-034-035-200600-
COLUMBIA BASIN
  
CITY           SKY/WX    TMP DP  RH WIND       PRES   REMARKS
EPHRATA        CLEAR     75  48  38 W3        29.87R                  
MOSES LAKE     CLEAR     78  52  40 S7        29.88R                  
PASCO          CLEAR     76  55  48 CALM      29.84R                  
RICHLAND ARPT  CLEAR     72  58  61 CALM      29.83S                  
HERMISTON, OR  CLEAR     70  51  51 S8        29.84R                  
$$

WAZ036>038-200600-
NORTHEAST WASHINGTON
  
CITY           SKY/WX    TMP DP  RH WIND       PRES   REMARKS
SPOKANE GEIGER CLEAR     72  41  32 SW5       29.95S                  
SPOKANE FELTS  CLEAR     66  48  52 N3        29.94R                  
FAIRCHILD AFB  CLEAR     71  40  32 CALM      29.96                   
COEURDALENE,ID CLEAR     67  52  58 E3        29.97R                  
DEER PARK      CLEAR     58  44  60 E3        29.95R                  
$$

WAZ029>033-200600-
SOUTHEAST WASHINGTON
  
CITY           SKY/WX    TMP DP  RH WIND       PRES   REMARKS
PULLMAN        CLEAR     64  43  46 CALM      29.98S                  
LEWISTON, ID   CLEAR     75  42  30 S7        29.90R                  
WALLA WALLA    CLEAR     73  47  39 E8        29.88S                  
PENDLETON, OR  CLEAR     70  41  34 SE6       29.89S                  
$$